| time (UTC) | temp F | wind direction | speed MPH | gust MPH | rain 1hr in | rain 24hr in | rain mn in | humidity % | barometer mb |
| 20260505111513 | 53 | 269 | 0.0 | 0.0 | 0.02 | 0.16 | 0.16 | 89 | 1013.8 |
| 20260505101508 | 53 | 269 | 0.0 | 0.0 | 0.05 | 0.14 | 0.14 | 89 | 1014.1 |
| 20260505100008 | 53 | 269 | 0.0 | 0.0 | 0.05 | 0.14 | 0.14 | 89 | 1014.3 |
| 20260505094506 | 54 | 269 | 0.0 | 0.0 | 0.05 | 0.13 | 0.13 | 89 | 1014.3 |
| 20260505093006 | 53 | 269 | 0.0 | 0.0 | 0.04 | 0.12 | 0.12 | 88 | 1014.3 |
| 20260505091505 | 53 | 269 | 0.0 | 0.0 | 0.01 | 0.09 | 0.09 | 88 | 1014.5 |
| 20260505090004 | 53 | 269 | 0.0 | 0.0 | 0.02 | 0.09 | 0.09 | 88 | 1014.6 |
| 20260505084506 | 53 | 269 | 0.0 | 0.0 | 0.03 | 0.08 | 0.08 | 87 | 1014.9 |
| 20260505083002 | 53 | 269 | 0.0 | 0.0 | 0.06 | 0.08 | 0.08 | 87 | 1014.6 |
| 20260505081604 | 53 | 269 | 0.0 | 0.0 | 0.06 | 0.08 | 0.08 | 87 | 1014.5 |
| 20260505080059 | 53 | 269 | 0.0 | 0.0 | 0.06 | 0.08 | 0.08 | 87 | 1014.6 |
| 20260505074558 | 54 | 269 | 0.0 | 0.0 | 0.05 | 0.06 | 0.06 | 86 | 1014.8 |
| 20260505073059 | 53 | 269 | 0.0 | 0.0 | 0.03 | 0.03 | 0.03 | 86 | 1015.2 |
| 20260505071556 | 54 | 269 | 0.0 | 0.0 | 0.02 | 0.02 | 0.02 | 85 | 1015.3 |
| 20260505070057 | 54 | 269 | 0.0 | 3.0 | 0.02 | 0.02 | 0.02 | 85 | 1015.2 |
| 20260505064557 | 54 | 270 | 2.0 | 3.0 | 0.01 | 0.01 | 0.01 | 84 | 1014.7 |
| 20260505063052 | 54 | 271 | 0.0 | 0.0 | 0.00 | 0.00 | 0.00 | 83 | 1014.5 |
| 20260505061554 | 55 | 271 | 0.0 | 0.0 | 0.00 | 0.00 | 0.00 | 82 | 1014.3 |
| 20260505060046 | 55 | 271 | 0.0 | 0.0 | 0.00 | 0.00 | 0.00 | 81 | 1014.4 |
| 20260505054546 | 55 | 271 | 0.0 | 1.0 | 0.00 | 0.00 | 0.00 | 81 | 1014.5 |
| 20260505053047 | 55 | 271 | 0.0 | 0.0 | 0.00 | 0.00 | 0.00 | 80 | 1014.7 |
| 20260505051542 | 55 | 271 | 0.0 | 3.0 | 0.00 | 0.00 | 0.00 | 79 | 1014.6 |
| 20260505041536 | 57 | 279 | 1.0 | 5.0 | 0.00 | 0.00 | 0.00 | 72 | 1014.8 |
| 20260505040037 | 57 | 279 | 2.0 | 4.0 | 0.00 | 0.00 | 0.00 | 71 | 1014.5 |
| 20260505034536 | 58 | 277 | 0.0 | 2.0 | 0.00 | 0.00 | 0.00 | 72 | 1014.3 |
| 20260505033100 | 58 | 277 | 0.0 | 1.0 | 0.00 | 0.00 | 0.00 | 72 | 1014.3 |
| 20260505031538 | 58 | 277 | 0.0 | 3.0 | 0.00 | 0.00 | 0.00 | 72 | 1014.2 |
| 20260505030035 | 59 | 279 | 1.0 | 4.0 | 0.00 | 0.00 | 0.00 | 73 | 1014.0 |
| 20260505024534 | 59 | 107 | 0.0 | 3.0 | 0.00 | 0.00 | 0.00 | 76 | 1013.7 |
| 20260505023042 | 60 | 99 | 1.0 | 3.0 | 0.00 | 0.00 | 0.00 | 75 | 1013.9 |
| 20260505021533 | 60 | 96 | 1.0 | 2.0 | 0.00 | 0.00 | 0.00 | 74 | 1013.8 |
| 20260505020033 | 60 | 96 | 0.0 | 2.0 | 0.00 | 0.00 | 0.00 | 74 | 1013.8 |
| 20260505014534 | 60 | 96 | 1.0 | 2.0 | 0.00 | 0.00 | 0.00 | 73 | 1013.9 |
| 20260505013032 | 60 | 96 | 1.0 | 3.0 | 0.00 | 0.00 | 0.00 | 72 | 1013.9 |
| 20260505011533 | 61 | 96 | 1.0 | 4.0 | 0.00 | 0.00 | 0.00 | 71 | 1014.1 |
| 20260505010034 | 61 | 90 | 1.0 | 3.0 | 0.00 | 0.00 | 0.00 | 71 | 1014.1 |
| 20260505004543 | 61 | 89 | 1.0 | 4.0 | 0.00 | 0.00 | 0.00 | 70 | 1014.1 |
| 20260505003032 | 61 | 72 | 3.0 | 5.0 | 0.00 | 0.00 | 0.00 | 67 | 1014.1 |
| 20260505001532 | 62 | 58 | 2.0 | 4.0 | 0.00 | 0.00 | 0.00 | 66 | 1014.2 |
| 20260505000034 | 63 | 263 | 1.0 | 4.0 | 0.00 | 0.00 | 0.00 | 64 | 1014.1 |
| 20260504234539 | 63 | 261 | 0.0 | 3.0 | 0.00 | 0.00 | 0.00 | 63 | 1014.2 |
| 20260504233032 | 64 | 261 | 0.0 | 1.0 | 0.00 | 0.00 | 0.00 | 63 | 1014.3 |
| 20260504231539 | 64 | 261 | 0.0 | 2.0 | 0.00 | 0.00 | 0.00 | 62 | 1014.3 |
| 20260504230030 | 64 | 267 | 0.0 | 2.0 | 0.00 | 0.00 | 0.00 | 62 | 1014.3 |
| 20260504224529 | 64 | 267 | 0.0 | 2.0 | 0.00 | 0.00 | 0.00 | 62 | 1014.4 |
| 20260504223028 | 64 | 266 | 0.0 | 6.0 | 0.00 | 0.00 | 0.00 | 62 | 1014.5 |
| 20260504221528 | 64 | 263 | 0.0 | 3.0 | 0.00 | 0.00 | 0.00 | 62 | 1014.6 |
| 20260504220029 | 64 | 260 | 0.0 | 3.0 | 0.00 | 0.00 | 0.00 | 63 | 1014.7 |
| 20260504214535 | 63 | 246 | 0.0 | 4.0 | 0.00 | 0.00 | 0.00 | 63 | 1014.7 |
| 20260504213031 | 63 | 247 | 2.0 | 7.0 | 0.00 | 0.00 | 0.00 | 62 | 1014.8 |
| 20260504211528 | 64 | 277 | 2.0 | 6.0 | 0.00 | 0.00 | 0.00 | 61 | 1014.9 |
| 20260504210025 | 64 | 317 | 0.0 | 4.0 | 0.00 | 0.00 | 0.00 | 65 | 1014.7 |
| 20260504204550 | 63 | 257 | 1.0 | 4.0 | 0.00 | 0.00 | 0.00 | 64 | 1014.6 |
| 20260504203027 | 63 | 252 | 0.0 | 2.0 | 0.00 | 0.00 | 0.00 | 67 | 1014.8 |
| 20260504201520 | 62 | 252 | 1.0 | 3.0 | 0.00 | 0.00 | 0.00 | 68 | 1014.8 |
| 20260504200020 | 62 | 252 | 2.0 | 4.0 | 0.00 | 0.00 | 0.00 | 70 | 1014.8 |
| 20260504194518 | 61 | 231 | 1.0 | 3.0 | 0.00 | 0.00 | 0.00 | 70 | 1014.7 |
| 20260504193021 | 60 | 73 | 0.0 | 3.0 | 0.00 | 0.00 | 0.00 | 73 | 1014.9 |
| 20260504191514 | 60 | 73 | 0.0 | 2.0 | 0.00 | 0.00 | 0.00 | 72 | 1015.1 |
| 20260504190018 | 60 | 72 | 1.0 | 3.0 | 0.00 | 0.00 | 0.00 | 72 | 1015.2 |
| 20260504184516 | 60 | 73 | 0.0 | 1.0 | 0.00 | 0.00 | 0.00 | 73 | 1015.0 |
| 20260504183016 | 60 | 71 | 0.0 | 4.0 | 0.00 | 0.00 | 0.00 | 74 | 1015.2 |
| 20260504181515 | 59 | 65 | 0.0 | 4.0 | 0.00 | 0.00 | 0.00 | 76 | 1015.2 |
| 20260504180010 | 59 | 65 | 2.0 | 6.0 | 0.00 | 0.00 | 0.00 | 75 | 1015.3 |
| 20260504174509 | 60 | 61 | 2.0 | 7.0 | 0.00 | 0.00 | 0.00 | 74 | 1015.2 |
| 20260504173006 | 60 | 211 | 0.0 | 3.0 | 0.00 | 0.00 | 0.00 | 71 | 1015.0 |
| 20260504171511 | 59 | 210 | 0.0 | 1.0 | 0.00 | 0.00 | 0.00 | 71 | 1014.8 |